This is the latest recevied weather packets stored in our database for station/object KC1BRV. If no packets are shown the sender has not sent any weather packets the latest 10 day(s).
| Time | Temp. | Humidity | Pressure | Rain* | Wind** | Luminosity | Snow |
|---|---|---|---|---|---|---|---|
| 1777840453 | 12.22° C | 38% | 1008.1 hPa | 0 mm | - | 146 W/m² | - |
| 1777840150 | 12.22° C | 38% | 1007.9 hPa | 0 mm | - | 167 W/m² | - |
| 1777839848 | 12.22° C | 38% | 1007.8 hPa | 0 mm | - | 126 W/m² | - |
| 1777839546 | 12.22° C | 38% | 1007.8 hPa | 0 mm | - | 183 W/m² | - |
| 1777839243 | 12.22° C | 37% | 1007.8 hPa | 0 mm | - | 209 W/m² | - |
| 1777838941 | 12.22° C | 38% | 1007.8 hPa | 0 mm | - | 124 W/m² | - |
| 1777838636 | 12.22° C | 41% | 1007.9 hPa | 0 mm | - | 214 W/m² | - |
| 1777838333 | 12.22° C | 39% | 1007.9 hPa | 0 mm | - | 241 W/m² | - |
| 1777838030 | 12.22° C | 40% | 1007.6 hPa | 0 mm | - | 205 W/m² | - |
| 1777837727 | 11.67° C | 39% | 1007.8 hPa | 0 mm | - | 277 W/m² | - |
| 1777837423 | 11.67° C | 42% | 1008 hPa | 0 mm | - | 172 W/m² | - |
| 1777837120 | 11.67° C | 38% | 1007.9 hPa | 0 mm | - | 139 W/m² | - |
| 1777836815 | 11.67° C | 38% | 1007.8 hPa | 0 mm | - | 117 W/m² | - |
| 1777836512 | 11.67° C | 37% | 1007.6 hPa | 0 mm | - | 129 W/m² | - |
| 1777836207 | 12.22° C | 36% | 1007.8 hPa | 0 mm | - | 156 W/m² | - |
| 1777835903 | 11.67° C | 38% | 1007.9 hPa | 0 mm | - | 232 W/m² | - |
| 1777835601 | 11.67° C | 40% | 1007.9 hPa | 0 mm | - | 227 W/m² | - |
| 1777835297 | 11.67° C | 39% | 1007.9 hPa | 0 mm | - | 161 W/m² | - |
| 1777834994 | 11.67° C | 39% | 1007.9 hPa | 0 mm | - | 128 W/m² | - |
| 1777834692 | 12.22° C | 39% | 1007.7 hPa | 0 mm | - | 192 W/m² | - |
| 1777834388 | 12.22° C | 40% | 1007.8 hPa | 0 mm | - | 249 W/m² | - |
| 1777834087 | 12.22° C | 38% | 1007.7 hPa | 0 mm | - | 218 W/m² | - |
| 1777833784 | 12.22° C | 38% | 1007.6 hPa | 0 mm | - | 275 W/m² | - |
| 1777833480 | 12.22° C | 38% | 1007.6 hPa | 0 mm | - | 268 W/m² | - |
| 1777833177 | 12.22° C | 39% | 1007.7 hPa | 0 mm | - | 232 W/m² | - |
* Rain latest hour (hover to see other rain measurements)
** Current wind speed in m/s (hover to see current wind gust speed)